GW0323 Weather Reports


Display with metric or nautical units.
time (UTC)temp
F
wind
direction
speed
MPH
gust
MPH
rain 1hr
in
rain 24hr
in
rain mn
in
humidity
%
barometer
mb
20260503211637 71 342 10.0 19.0 0.00 0.00 0.00 33 1003.6
20260503211139 71 115 5.0 14.0 0.00 0.00 0.00 31 1003.5
20260503210621 70 294 9.0 14.0 0.00 0.00 0.00 29 1003.7
20260503210127 71 295 5.0 17.0 0.00 0.00 0.00 30 1003.6
20260503205612 70 252 5.0 19.0 0.00 0.00 0.00 31 1003.5
20260503205117 70 275 9.0 19.0 0.00 0.00 0.00 30 1003.5
20260503204620 71 254 9.0 21.0 0.00 0.00 0.00 34 1003.6
20260503204122 70 265 13.0 21.0 0.00 0.00 0.00 37 1003.6
20260503203624 70 269 7.0 17.0 0.00 0.00 0.00 33 1003.5
20260503203125 71 350 3.0 18.0 0.00 0.00 0.00 42 1003.7
20260503202627 70 20 7.0 21.0 0.00 0.00 0.00 33 1003.6
20260503202131 70 127 6.0 19.0 0.00 0.00 0.00 34 1003.7
20260503201634 70 341 11.0 19.0 0.00 0.00 0.00 32 1003.7
20260503201135 70 338 11.0 19.0 0.00 0.00 0.00 33 1003.8
20260503200636 70 207 8.0 17.0 0.00 0.00 0.00 34 1003.7
20260503200120 70 18 11.0 17.0 0.00 0.00 0.00 37 1003.8
20260503195623 70 323 5.0 17.0 0.00 0.00 0.00 40 1003.6
20260503195125 70 323 7.0 18.0 0.00 0.00 0.00 45 1003.8
20260503194629 70 250 7.0 18.0 0.00 0.00 0.00 40 1003.7
20260503194151 70 199 5.0 14.0 0.00 0.00 0.00 39 1003.7
20260503193614 69 238 6.0 14.0 0.00 0.00 0.00 39 1003.8
20260503193119 69 281 9.0 14.0 0.00 0.00 0.00 41 1004.0
20260503192641 70 254 4.0 13.0 0.00 0.00 0.00 41 1003.9
20260503192124 69 350 9.0 13.0 0.00 0.00 0.00 37 1004.0
20260503191627 69 238 5.0 8.0 0.00 0.00 0.00 39 1003.9
20260503191132 68 286 3.0 15.0 0.00 0.00 0.00 40 1004.1
20260503190614 68 257 4.0 15.0 0.00 0.00 0.00 44 1004.1
20260503190117 68 265 5.0 13.0 0.00 0.00 0.00 40 1004.2
20260503185623 68 208 6.0 13.0 0.00 0.00 0.00 40 1004.2
20260503185145 68 231 5.0 14.0 0.00 0.00 0.00 44 1004.4
20260503184645 68 254 6.0 14.0 0.00 0.00 0.00 41 1004.4
20260503184127 68 279 4.0 11.0 0.00 0.00 0.00 41 1004.4
20260503183613 68 302 4.0 8.0 0.00 0.00 0.00 37 1004.4
20260503183117 67 248 3.0 14.0 0.00 0.00 0.00 41 1004.4
20260503182619 67 360 10.0 14.0 0.00 0.00 0.00 41 1004.4
20260503182123 68 257 8.0 14.0 0.00 0.00 0.00 43 1004.6
20260503181622 67 296 4.0 14.0 0.00 0.00 0.00 42 1004.6
20260503181125 67 209 4.0 14.0 0.00 0.00 0.00 42 1004.7
20260503180613 66 167 5.0 12.0 0.00 0.00 0.00 43 1004.7
20260503180115 66 234 5.0 12.0 0.00 0.00 0.00 42 1004.8
20260503175618 67 218 6.0 13.0 0.00 0.00 0.00 44 1004.8
20260503175136 66 136 4.0 14.0 0.00 0.00 0.00 40 1004.8
20260503174637 66 244 4.0 18.0 0.00 0.00 0.00 39 1004.8
20260503174120 66 153 6.0 14.0 0.00 0.00 0.00 41 1004.8
20260503173622 65 219 4.0 14.0 0.00 0.00 0.00 43 1004.9
20260503173124 64 255 8.0 13.0 0.00 0.00 0.00 42 1005.0
20260503172626 65 294 9.0 13.0 0.00 0.00 0.00 44 1005.1
20260503172128 65 275 6.0 16.0 0.00 0.00 0.00 45 1005.2
20260503171631 64 164 11.0 16.0 0.00 0.00 0.00 42 1005.1
20260503171112 64 283 3.0 18.0 0.00 0.00 0.00 42 1005.2
20260503170613 64 236 10.0 17.0 0.00 0.00 0.00 45 1005.2
20260503170135 64 155 5.0 12.0 0.00 0.00 0.00 44 1005.3
20260503160113 62 225 6.0 16.0 0.00 0.00 0.00 47 1005.5
20260503150621 60 233 6.0 21.0 0.00 0.00 0.00 45 1005.8
20260503150127 59 236 5.0 21.0 0.00 0.00 0.00 44 1005.9
20260503140118 57 205 5.0 15.0 0.00 0.00 0.00 54 1006.3
20260503131150 56 200 6.0 13.0 0.00 0.00 0.00 53 1006.7
20260503130631 56 140 7.0 14.0 0.00 0.00 0.00 54 1006.7
20260503130115 56 213 3.0 20.0 0.00 0.00 0.00 53 1006.7
20260503120151 54 231 4.0 16.0 0.00 0.00 0.00 54 1006.5
20260503110619 54 209 5.0 14.0 0.00 0.00 0.00 53 1006.8
20260503110120 55 182 6.0 17.0 0.00 0.00 0.00 51 1006.8
20260503100122 53 148 5.0 10.0 0.00 0.00 0.00 50 1007.7
20260503090129 54 233 3.0 7.0 0.00 0.00 0.00 46 1008.7
20260503081624 54 214 2.0 9.0 0.00 0.00 0.00 45 1009.1
20260503081127 54 146 5.0 9.0 0.00 0.00 0.00 43 1009.1
20260503080631 54 233 2.0 11.0 0.00 0.00 0.00 43 1009.2
20260503080115 54 192 5.0 13.0 0.00 0.00 0.00 44 1009.2
20260503072623 54 168 3.0 9.0 0.00 0.00 0.00 43 1009.6
20260503072126 54 165 3.0 7.0 0.00 0.00 0.00 44 1009.6
20260503071628 54 178 2.0 8.0 0.00 0.00 0.00 44 1009.7
20260503071113 54 219 4.0 10.0 0.00 0.00 0.00 43 1009.7
20260503070615 54 36 2.0 10.0 0.00 0.00 0.00 44 1009.6
20260503070120 54 182 5.0 10.0 0.00 0.00 0.00 43 1009.7
20260503060120 54 276 5.0 9.0 0.00 0.00 0.00 43 1010.2
20260503055128 54 165 1.0 5.0 0.00 0.00 0.00 44 1010.3
20260503054650 54 292 1.0 7.0 0.00 0.00 0.00 44 1010.3
20260503054113 54 173 3.0 7.0 0.00 0.00 0.00 43 1010.3
20260503053618 54 242 3.0 6.0 0.00 0.00 0.00 44 1010.4
20260503053121 54 300 1.0 4.0 0.00 0.00 0.00 44 1010.4
20260503052646 54 281 2.0 4.0 0.00 0.00 0.00 45 1010.4
20260503052127 54 215 2.0 8.0 0.00 0.00 0.00 44 1010.4
20260503051629 54 198 3.0 8.0 0.00 0.00 0.00 44 1010.4
20260503051132 54 168 2.0 6.0 0.00 0.00 0.00 43 1010.5
20260503050615 55 190 1.0 7.0 0.00 0.00 0.00 43 1010.5
20260503050118 55 235 2.0 10.0 0.00 0.00 0.00 43 1010.5
20260503045621 55 236 2.0 10.0 0.00 0.00 0.00 44 1010.4
20260503045125 55 162 4.0 9.0 0.00 0.00 0.00 43 1010.5
20260503044628 55 264 3.0 9.0 0.00 0.00 0.00 43 1010.5
20260503044129 55 236 2.0 9.0 0.00 0.00 0.00 44 1010.6
20260503043630 55 264 4.0 11.0 0.00 0.00 0.00 44 1010.7
20260503043113 55 240 3.0 11.0 0.00 0.00 0.00 44 1010.7
20260503042637 55 284 1.0 3.0 0.00 0.00 0.00 45 1010.7
20260503042119 55 141 1.0 3.0 0.00 0.00 0.00 45 1010.7
20260503041624 55 141 2.0 5.0 0.00 0.00 0.00 45 1010.7
20260503041128 55 224 0.0 5.0 0.00 0.00 0.00 46 1010.8
20260503040631 54 242 0.0 5.0 0.00 0.00 0.00 45 1010.8
20260503040117 54 161 0.0 1.0 0.00 0.00 0.00 47 1010.9
20260503035617 55 161 0.0 3.0 0.00 0.00 0.00 46 1010.9
20260503035121 55 161 0.0 3.0 0.00 0.00 0.00 45 1010.9
20260503034646 55 161 0.0 3.0 0.00 0.00 0.00 46 1011.0
20260503034129 55 161 0.0 3.0 0.00 0.00 0.00 46 1011.0
20260503033613 55 161 0.0 3.0 0.00 0.00 0.00 46 1011.1
20260503033136 55 161 1.0 3.0 0.00 0.00 0.00 44 1011.2
20260503032618 55 161 0.0 3.0 0.00 0.00 0.00 47 1011.2
20260503032123 55 161 1.0 3.0 0.00 0.00 0.00 44 1011.3
20260503031628 55 239 0.0 2.0 0.00 0.00 0.00 44 1011.3
20260503031131 55 239 0.0 2.0 0.00 0.00 0.00 44 1011.4
20260503030636 55 239 0.0 4.0 0.00 0.00 0.00 47 1011.5
20260503030118 55 226 1.0 4.0 0.00 0.00 0.00 45 1011.6
20260503025621 55 295 1.0 3.0 0.00 0.00 0.00 43 1011.6
20260503025124 55 295 0.0 1.0 0.00 0.00 0.00 46 1011.6
20260503024626 55 295 0.0 1.0 0.00 0.00 0.00 43 1011.6
20260503024152 55 295 0.0 2.0 0.00 0.00 0.00 44 1011.7
20260503023632 55 295 0.0 3.0 0.00 0.00 0.00 44 1011.6
20260503023134 54 295 0.0 2.0 0.00 0.00 0.00 47 1011.6
20260503022615 55 295 0.0 2.0 0.00 0.00 0.00 49 1011.6
20260503022118 55 295 0.0 2.0 0.00 0.00 0.00 44 1011.7
20260503021620 54 295 0.0 2.0 0.00 0.00 0.00 45 1011.7
20260503021124 53 295 0.0 2.0 0.00 0.00 0.00 53 1011.7
20260503020628 53 295 0.0 1.0 0.00 0.00 0.00 50 1011.7
20260503020134 54 295 0.0 3.0 0.00 0.00 0.00 48 1011.6
20260503015614 55 295 1.0 3.0 0.00 0.00 0.00 45 1011.7
20260503015137 54 295 1.0 3.0 0.00 0.00 0.00 47 1011.6
20260503014620 54 295 0.0 2.0 0.00 0.00 0.00 50 1011.7
20260503014124 55 295 1.0 2.0 0.00 0.00 0.00 48 1011.6
20260503013627 56 295 1.0 3.0 0.00 0.00 0.00 45 1011.6
20260503013131 56 295 1.0 3.0 0.00 0.00 0.00 47 1011.6
20260503012615 57 295 0.0 2.0 0.00 0.00 0.00 39 1011.6
20260503012138 57 295 1.0 2.0 0.00 0.00 0.00 39 1011.6
20260503011621 57 295 0.0 1.0 0.00 0.00 0.00 43 1011.7
20260503011125 56 295 0.0 1.0 0.00 0.00 0.00 43 1011.7
20260503010629 56 295 0.0 2.0 0.00 0.00 0.00 44 1011.7
20260503010131 57 295 1.0 4.0 0.00 0.00 0.00 43 1011.7
20260503005613 58 295 1.0 6.0 0.00 0.00 0.00 40 1011.8
20260503005114 59 260 1.0 6.0 0.00 0.00 0.00 38 1011.8
20260503004617 59 253 1.0 3.0 0.00 0.00 0.00 38 1011.8
20260503004121 60 253 1.0 7.0 0.00 0.00 0.00 34 1011.8
20260503003623 60 266 0.0 7.0 0.00 0.00 0.00 35 1011.9
20260503003128 60 279 3.0 8.0 0.00 0.00 0.00 35 1011.8
20260503002632 60 49 0.0 4.0 0.00 0.00 0.00 35 1011.8
20260503002113 60 49 1.0 8.0 0.00 0.00 0.00 34 1011.8
20260503001615 61 311 2.0 10.0 0.00 0.00 0.00 32 1011.9
20260503001118 60 209 3.0 5.0 0.00 0.00 0.00 33 1012.0
20260503000622 60 266 1.0 8.0 0.00 0.00 0.00 33 1012.0
20260503000126 61 266 4.0 8.0 0.00 0.00 0.00 32 1012.0
20260502235630 61 267 2.0 8.0 0.00 0.00 0.00 33 1012.0
20260502235131 61 271 4.0 8.0 0.00 0.00 0.00 33 1012.1
20260502234615 61 225 1.0 8.0 0.00 0.00 0.00 33 1012.1
20260502234116 61 238 4.0 9.0 0.00 0.00 0.00 34 1012.3
20260502233620 60 263 1.0 10.0 0.00 0.00 0.00 33 1012.3
20260502233122 61 250 5.0 13.0 0.00 0.00 0.00 33 1012.4
20260502232626 61 304 6.0 15.0 0.00 0.00 0.00 35 1012.4
20260502232129 61 225 7.0 15.0 0.00 0.00 0.00 31 1012.5
20260502231652 61 244 4.0 12.0 0.00 0.00 0.00 31 1012.4
20260502231136 61 220 7.0 11.0 0.00 0.00 0.00 31 1012.5
20260502230618 61 262 5.0 11.0 0.00 0.00 0.00 31 1012.6
20260502230140 62 261 4.0 11.0 0.00 0.00 0.00 31 1012.6
20260502225622 62 247 7.0 11.0 0.00 0.00 0.00 35 1012.7
20260502225125 61 257 5.0 13.0 0.00 0.00 0.00 35 1012.6
20260502224629 61 228 6.0 13.0 0.00 0.00 0.00 37 1012.7
20260502224131 61 206 7.0 12.0 0.00 0.00 0.00 33 1012.8
20260502223616 61 286 3.0 11.0 0.00 0.00 0.00 33 1012.8
20260502223139 61 265 5.0 11.0 0.00 0.00 0.00 31 1012.9
20260502222641 61 305 5.0 14.0 0.00 0.00 0.00 39 1013.0
20260502222143 61 274 4.0 14.0 0.00 0.00 0.00 34 1013.0
20260502221625 61 141 5.0 13.0 0.00 0.00 0.00 30 1013.1
20260502221129 61 248 4.0 18.0 0.00 0.00 0.00 30 1013.2
20260502220652 61 306 7.0 18.0 0.00 0.00 0.00 30 1013.2
20260502220116 61 242 7.0 15.0 0.00 0.00 0.00 31 1013.3
20260502215618 61 236 7.0 18.0 0.00 0.00 0.00 31 1013.3
20260502215124 61 264 8.0 19.0 0.00 0.00 0.00 32 1013.4
20260502214624 60 263 8.0 19.0 0.00 0.00 0.00 30 1013.4
20260502214128 61 252 6.0 13.0 0.00 0.00 0.00 34 1013.4
20260502213628 60 251 5.0 19.0 0.00 0.00 0.00 30 1013.4
20260502213114 60 334 7.0 19.0 0.00 0.00 0.00 30 1013.5
20260502212619 60 336 8.0 18.0 0.00 0.00 0.00 31 1013.5
20260502212121 61 252 7.0 11.0 0.00 0.00 0.00 33 1013.5